Inge Skaarud Karlsen

Log

Date Distance Time Pace Comments Action
04/10/16 2,157m 10:05.0 2:20.2 View workout
04/10/16 672m 2:32.9 1:53.7 View workout
04/10/16 7,218m 35:39.4 2:28.1 View workout
04/09/16 14,006m 1:00:00.0 2:08.5

hr: 173 | res: 4

View workout
04/09/16 209m 1:00.0 2:23.5 View workout
04/09/16 1,684m 8:26.8 2:30.4 View workout
04/08/16 500m 1:36.9 1:36.9

hr: 170 | res: 10

View workout
04/08/16 100m 0:20.5 1:42.5 View workout
04/08/16 100m 0:16.9 1:24.5

hr: 138 | res: 10

View workout
04/08/16 1,113m 4:00.0 1:47.8

hr: 183 | res: 6

View workout
04/08/16 936m 4:12.0 2:14.6 View workout
04/06/16 100m 0:17.2 1:26.0 View workout
04/06/16 1,000m 3:35.9 1:47.9

hr: 171 | res: 6

View workout
04/06/16 1,522m 7:47.1 2:33.4 View workout
04/04/16 100m 0:17.6 1:28.0 View workout
04/04/16 39m 0:09.6 2:03.0 View workout
04/04/16 232m 0:45.1 1:37.1 View workout
04/04/16 563m 2:52.8 2:33.4 View workout
04/03/16 8,265m 37:25.2 2:15.8

hr: 148 | res: 3

View workout
04/03/16 645m 3:24.3 2:38.3 View workout